Regional Weather Roundup
Issued by NWS

Home | Current Version | Previous Version | Text Only | Print | Product List | Glossary On
Versions: 1 2 3 4 5 6 7 8 9 10 11 12 13 14 15 16 17 18 19 20 21 22 23 24 25 26 27 28 29 30 31 32 33 34 35 36 37 38 39 40 41 42 43 44 45 46 47 48 49 50
000
ASUS46 KSEW 200410
RWRWA

WASHINGTON REGIONAL WEATHER ROUNDUP
NATIONAL WEATHER SERVICE SEATTLE WA
900 PM PDT SUN OCT 19 2014

NOTE:"FAIR" INDICATES FEW OR NO CLOUDS BELOW 12,000 FEET WITH NO
SIGNIFICANT WEATHER AND/OR OBSTRUCTIONS TO VISIBILITY.

WAZ505-507>509-200500-
SEATTLE, TACOMA, EVERETT, AND VICINITY

CITY           SKY/WX    TMP DP  RH WIND       PRES   REMARKS
EVERETT        NOT AVBL
BOEING FIELD   NOT AVBL
RENTON         NOT AVBL
SEATAC AIRPORT NOT AVBL
JBLM-MCCHORD   NOT AVBL
PUYALLUP       NOT AVBL
JBLM-FT LEWIS  NOT AVBL
TACOMA NARROWS NOT AVBL
$$

WAZ001-503-506-510-514-515-200500-
NORTH INTERIOR

CITY           SKY/WX    TMP DP  RH WIND       PRES   REMARKS
BELLINGHAM     NOT AVBL
FRIDAY HARBOR  NOT AVBL
PORT ANGELES   NOT AVBL
NAS WHIDBEY    NOT AVBL
BURLINGTON     NOT AVBL
$$

WAZ020-022-039-040-504-511-512-200500-
SOUTHWEST INTERIOR

CITY           SKY/WX    TMP DP  RH WIND       PRES   REMARKS
SHELTON        NOT AVBL
OLYMPIA        NOT AVBL
CHEHALIS       NOT AVBL
KELSO          NOT AVBL
VANCOUVER      NOT AVBL
SCAPPOOSE, OR  NOT AVBL
PORTLAND, OR   NOT AVBL
$$

WAZ021-516-517-200500-
WASHINGTON COAST

CITY           SKY/WX    TMP DP  RH WIND       PRES   REMARKS
FORKS          NOT AVBL
HOQUIAM        NOT AVBL
ASTORIA, OR    NOT AVBL
$$

WAZ019-023-024-040-518-519-200500-
CASCADE MOUNTAINS AND COLUMBIA GORGE

CITY           SKY/WX    TMP DP  RH WIND       PRES   REMARKS
STAMPEDE PASS  NOT AVBL
TROUTDALE, OR  NOT AVBL
THE DALLES, OR NOT AVBL
$$

WAZ026-027-041>044-520-521-200500-
EAST SLOPES

CITY           SKY/WX    TMP DP  RH WIND       PRES   REMARKS
OMAK           NOT AVBL
WENATCHEE      NOT AVBL
ELLENSBURG     NOT AVBL
YAKIMA         NOT AVBL
$$

WAZ028-034-035-200500-
COLUMBIA BASIN

CITY           SKY/WX    TMP DP  RH WIND       PRES   REMARKS
EPHRATA        NOT AVBL
MOSES LAKE     NOT AVBL
PASCO          NOT AVBL
HERMISTON, OR  NOT AVBL
$$

WAZ036>038-200500-
NORTHEAST WASHINGTON

CITY           SKY/WX    TMP DP  RH WIND       PRES   REMARKS
SPOKANE GEIGER NOT AVBL
SPOKANE FELTS  NOT AVBL
FAIRCHILD AFB  NOT AVBL
COEURDALENE,ID NOT AVBL
DEER PARK      NOT AVBL
$$

WAZ029>033-200500-
SOUTHEAST WASHINGTON

CITY           SKY/WX    TMP DP  RH WIND       PRES   REMARKS
PULLMAN        NOT AVBL
LEWISTON, ID   NOT AVBL
WALLA WALLA    NOT AVBL
PENDLETON, OR  NOT AVBL
$$



USA.gov is the U.S. government's official web portal to all federal, state and local government web resources and services.